Location: LDNL
(36.4545°S, 141.6685°E)
Time: 16:16:48
(UTC+10:00)

Courier 1B - Pass Details

Date: 10 August 2022
Orbit: 962 x 1209 km, 28.3° (Epoch: 25 September)

Event Time Altitude Azimuth Distance (km) Brightness Sun altitude
Exits shadow 05:13:57 30° 328° (NNW) 1,977 8.8 -26.2°
Maximum altitude 05:14:53 31° 340° (NNW) 1,940 8.8 -26.0°
Drops below altitude 10° 05:21:14 10° 39° (NE) 3,008 10.5 -24.7°
Sets 05:24:18 0° 49° (NE) 3,925 11.4 -24.1°
